Regional Weather Roundup
Issued by NWS Raleigh/Durham, NC

Home | Current Version | Previous Version | Text Only | Print | Product List | Glossary On
Versions: 1 2 3 4 5 6 7 8 9 10 11 12 13 14 15 16 17 18 19 20 21 22 23 24 25 26 27 28
000
ASUS42 KRAH 222110
RWRRAH
NORTH CAROLINA WEATHER ROUNDUP
NATIONAL WEATHER SERVICE RALEIGH NC
500 PM EDT SUN MAY 22 2022

NOTE: "FAIR" INDICATES FEW OR NO CLOUDS BELOW 12,000 FEET WITH NO
SIGNIFICANT WEATHER AND/OR OBSTRUCTIONS TO VISIBILITY.

NCZ001-053-055-056-065-067-222200-
WESTERN NORTH CAROLINA

CITY           SKY/WX    TMP DP  RH WIND       PRES   REMARKS
ASHEVILLE      TSTM      65  64  97 N8        30.23R VSB 1/2
JEFFERSON      MOSUNNY   71  52  52 W14G23    30.23S
MORGANTON      CLOUDY    78  63  58 N8        30.18R
HICKORY        MOSUNNY   86  63  45 S14G21    30.11S
WILKESBORO     TSTM      70  68  94 CALM      30.20R
RUTHERFORDTON  PTSUNNY   84  61  45 SW7G16    30.14R
MOUNT AIRY     CLOUDY    75  61  62 N10       30.15R
BOONE          PTSUNNY   67  62  81 W7        30.24F
$$

NCZ021-022-025-041-071-084-088-222200-
CENTRAL NORTH CAROLINA

CITY           SKY/WX    TMP DP  RH WIND       PRES   REMARKS
CHARLOTTE      PTSUNNY   85  65  51 SW10      30.11F
GREENSBORO     PTSUNNY   86  62  44 SW14      30.09F
WINSTON-SALEM  SUNNY     86  59  39 SW8G20    30.11S
RALEIGH-DURHAM MOSUNNY   89  67  47 SW14      30.09F
FORT BRAGG     MOSUNNY   83  66  56 SW12      30.10S
FAYETTEVILLE   MOSUNNY   86  63  45 S13       30.11F
BURLINGTON     MOSUNNY   88  62  41 SW10      30.08F
ROXBORO        MOSUNNY   86  63  45 SW10G17   30.10F
HENDERSON      SUNNY     86  62  44 W9        30.08F
LOUISBURG      MOSUNNY   88  63  42 S10G16    30.11F
LAURINBURG     MOSUNNY   85  66  53 SW13G18   30.13F
$$

NCZ011-015-027-028-043-044-047-080-103-222200-
NORTHEASTERN NORTH CAROLINA

CITY           SKY/WX    TMP DP  RH WIND       PRES   REMARKS
ROCKY MT-WILSO SUNNY     90  64  42 SW12G20   30.09F
GREENVILLE     SUNNY     90  64  43 W10       30.09F
WASHINGTON     PTSUNNY   88  62  41 SW14      30.11F
ELIZABETH CITY SUNNY     87  70  56 SW15      30.08S
MANTEO         CLOUDY    83  70  64 SW14      30.11F
CAPE HATTERAS  CLOUDY    77  69  76 SW13      30.16S
$$

NCZ078-087-090-091-093-098-101-222200-
SOUTHEASTERN NORTH CAROLINA

CITY           SKY/WX    TMP DP  RH WIND       PRES   REMARKS
GOLDSBORO      PTSUNNY   87  64  45 S10       30.08F
KINSTON          N/A     88  70  55 S9        30.12F
KENANSVILLE    CLOUDY    84  66  54 MISG      30.14R
NEW BERN       SUNNY     84  70  61 S9        30.15S
CHERRY POINT   CLOUDY    80  70  71 SW13      30.17S
BEAUFORT       CLOUDY    78  71  79 SW16      30.17S
JACKSONVILLE   PTSUNNY   81  70  69 S10       30.14F
WILMINGTON     LGT RAIN  76  70  82 SW12G25   30.18S
$$




USA.gov is the U.S. government's official web portal to all federal, state and local government web resources and services.